Regional Weather Roundup
Issued by NWS

Home | Current Version | Previous Version | Text Only | Print | Product List | Glossary Off
Versions: 1 2 3 4 5 6 7 8 9 10 11 12 13 14 15 16 17 18 19 20 21 22 23 24 25 26 27 28

000
ASUS45 KTFX 241810
RWRMT
MONTANA REGIONAL WEATHER ROUNDUP
NATIONAL WEATHER SERVICE GREAT FALLS MT
1100 AM MST FRI NOV 24 2017

NOTE: "FAIR" INDICATES FEW OR NO CLOUDS BELOW 12000 FEET WITH NO
SIGNIFICANT WEATHER AND/OR OBSTRUCTIONS TO VISIBILITY.

MTZ001>007-043-241900-
WEST OF THE DIVIDE

CITY           SKY/WX    TMP DP  RH WIND       PRES   REMARKS
KALISPELL      CLOUDY    45  31  58 SW16G22   29.97R
MISSOULA       CLOUDY    43  31  62 W5        30.04R
BUTTE          FAIR      40  21  46 SW8       29.97S
MULLAN PASS    SNOW      28  25  88 CALM      29.97R VSB 1/4
ANACONDA         N/A     43  19  39 S3        29.97R
DEER LODGE       N/A     37  25  60 CALM      29.99R
EUREKA           N/A     46  28  49 MISG      29.94R
HAMILTON         N/A     45  27  49 CALM      30.04R
LIBBY            N/A     46  34  61 SW5       29.97R
PLAINS           N/A     45  29  53 S15       30.03
THOMPSON FALLS   N/A     43  34  70 W2        30.08R
$$

MTZ008-052>055-241900-
SOUTHWEST MONTANA

CITY           SKY/WX    TMP DP  RH WIND       PRES   REMARKS
BOZEMAN        FAIR      44  28  53 SW5       29.96R
DILLON         FAIR      44  19  36 SW22      29.98R
W YELLOWSTONE  FAIR      41  23  48 SW14G21   29.98R
ENNIS          SUNNY     46  25  42 NW7       30.02R
TWIN BRIDGES     N/A     46  18  33 CALM      29.97
$$

MTZ009-010-012-014-046-048-049-054-241900-
EAST SLOPES AND CENTRAL MONTANA

CITY           SKY/WX    TMP DP  RH WIND       PRES   REMARKS
CUT BANK       FAIR      42  26  53 W14       29.82R
GREAT FALLS    FAIR      44  23  43 SW16      29.86R
MALMSTROM AFB  FAIR      43  24  45 SW21G26   29.86S
HELENA         FAIR      42  25  50 W22G28    29.92S
BOWMANS CRNR   PTSUNNY   37  24  60 SW28G35   29.85F WCI  24
CHOTEAU          N/A     41  21  45 W5        29.88R
FAIRFIELD      FAIR      42  24  50 SW12      29.85R
POWER          FAIR      38  26  60 SW13      29.85R WCI  30
RAYNESFORD     PTSUNNY   43  20  39 SW21G32   29.86S
ULM            PTSUNNY   43  22  42 SW25G31   29.88R
$$

MTZ011-013-016-021-045-047-050-051-241900-
NORTH CENTRAL MONTANA

CITY           SKY/WX    TMP DP  RH WIND       PRES   REMARKS
HAVRE          FAIR      44  29  55 SW17G24   29.81R
LEWISTOWN      FAIR      45  19  35 W12       29.87R
N BAR RANCH    FAIR      46  14  27 W14G25    29.87S
CHINOOK          N/A     45  30  57 SW12      29.81R
DENTON         PTSUNNY   46  22  38 W24G32    29.82S
GEYSER         PTSUNNY   42  21  41 W30G44    29.82F
GRASS RANGE    FAIR      45  18  33 W20G25    29.82S
STANFORD       FAIR      44  17  34 W20G25    29.85R
WINIFRED       FAIR      46  22  38 W21G28    29.84S
$$

MTZ017>020-022>027-061-062-241900-
NORTHEAST MONTANA

CITY           SKY/WX    TMP DP  RH WIND       PRES   REMARKS
GLASGOW        FAIR      45  36  70 W12       29.77S
GLENDIVE       FAIR      46  36  68 W16       29.80R
JORDAN           N/A     50  50 100 NW18G24   29.81S
SIDNEY         FAIR      48  36  63 W18       29.74R
WOLF POINT     FAIR      47  37  68 W14       29.77R
MALTA          SUNNY     43  34  70 W15       29.80R
PLENTYWOOD       N/A     45  36  70 W20       29.69R
POPLAR           N/A     46  36  66 W12       29.75S
SCOBEY           N/A     44  30  58 W17       29.71R
$$

MTZ028>42-056>058-241900-
SOUTHCENTRAL AND SOUTHEAST MONTANA

CITY           SKY/WX    TMP DP  RH WIND       PRES   REMARKS
BAKER          PTSUNNY   46  37  71 NW18G29   29.78R
BILLINGS       FAIR      50  19  29 NW18      29.88R
LIVINGSTON     FAIR      48  26  42 W23       29.90R
MILES CITY     FAIR      50  33  52 NW23G30   29.81F
BIG TIMBER     SUNNY     48  19  32 W26       29.90F
EKALAKA          N/A     43  32  65 W15       29.81R
FORSYTH          N/A     48  28  46 W16G26    29.86R
HARLOWTON      FAIR      44  22  42 W25G32    29.88S
LAUREL           N/A     52  19  28 W10       29.90S
ROUNDUP          N/A     50  14  23 W14       29.80S
$$

REGIONAL REPORTS...DAKOTAS

CITY           SKY/WX    TMP DP  RH WIND       PRES   REMARKS
WILLISTON      FAIR      48  36  63 W20G28    29.70R
MINOT          FAIR      49  38  65 W22G30    29.58R
DICKINSON      PTSUNNY   47  37  68 NW25G33   29.68R
BEACH          FAIR      46  37  71 NW23G30   29.78S
CROSBY         FAIR      46  36  66 NW22G30   29.63S
TIOGA          FAIR      43  43 100 W21       29.66R
WATFORD CITY   FAIR      45  39  81 W17       29.70R
BISMARCK       FAIR      52  39  61 NW16      29.65R
GRAND FORKS    FAIR      44  38  79 NW17      29.43R
FARGO          CLOUDY    45  42  89 NW15      29.45R
RAPID CITY     FAIR      53  27  36 NW39G48   29.80R
$$

REGIONAL REPORTS...WYOMING/IDAHO/WASHINGTON

CITY           SKY/WX    TMP DP  RH WIND       PRES   REMARKS
GILLETTE       FAIR      48  26  42 NW22G29   29.89R
SHERIDAN       FAIR      50  24  36 NW18G28   29.91F
BUFFALO WY     FAIR      46  19  34 N29G41    29.89R
CODY           FAIR      46  34  62 S5        29.92R
YELLOWSTONE LA   N/A     37  22  54 VRB6      30.02S
IDAHO FALLS    PTSUNNY   46  44  93 SW12      30.04R
SALMON         FAIR      43  37  79 CALM      30.04R
BOISE          PTSUNNY   48  38  68 NW8       30.12R
SPOKANE        PTSUNNY   39  36  89 S18       30.05R WCI  30
$$

REGIONAL REPORTS...ALBERTA

CITY           SKY/WX    TMP DP  RH WIND       PRES   REMARKS
EDMONTON       PTSUNNY   37  30  75 W12       29.65R WCI  30
CALGARY        PTSUNNY   45  18  33 W12G24    29.69R
LETHBRIDGE     MOSUNNY   46  25  42 W29G39    29.74S
$$

REGIONAL REPORTS...SASKATCHEWAN

CITY           SKY/WX    TMP DP  RH WIND       PRES   REMARKS
SWIFT CURRENT  SUNNY     37  32  81 W18G26    29.69R WCI  27
REGINA         PTSUNNY   37  32  81 W18       29.62R WCI  27
SASKATOON      PTSUNNY   36  28  75 W10       29.60R WCI  28
$$




USA.gov is the U.S. government's official web portal to all federal, state and local government web resources and services.